Regional Weather Roundup
Issued by NWS State College, PA

Home | Current Version | Previous Version | Text Only | Print | Product List | Glossary On
Versions: 1 2 3 4 5 6 7 8 9 10 11 12 13 14 15 16 17 18 19 20 21 22 23 24 25 26 27 28 29 30 31 32 33 34 35 36 37 38 39 40 41 42 43 44 45 46 47 48 49 50
000
ASUS41 KCTP 220010
RWRCTP

REGIONAL WEATHER ROUNDUP
NATIONAL WEATHER SERVICE STATE COLLEGE PA
700 PM EST TUE FEB 21 2017

Note: "fair" indicates few or no clouds below 12,000 feet with no
significant weather and/or obstructions to visibility.

* = STATION THAT DOES NOT REPORT PRECIPITATION /E.G. RAIN...SNOW...ETC/
    THUNDER OR FOG.

PAZ002>004-007>009-013>016-020>023-029>032-220100-
WESTERN PENNSYLVANIA

CITY           SKY/WX    TMP DP  RH WIND       PRES   REMARKS
ERIE           CLOUDY    48  40  73 NW10      29.96R
MEADVILLE      CLOUDY    57  40  52 S6        29.97F
FRANKLIN*      CLOUDY    55  39  54 S6        30.00F
NEW CASTLE     MOCLDY    60  43  53 S3        29.99S
BEAVER COUNTY  MOCLDY    61  41  48 S3        30.00R
BUTLER*        CLOUDY    59  41  51 S6        30.01S
PITTSBURGH INT CLOUDY    61  44  53 CALM      30.00S
PITTSBURGH     CLOUDY    63  39  41 S5        30.01R
INDIANA*       MOCLDY    55  36  47 CALM      30.05R
LATROBE        PTCLDY    59  37  44 S6        30.02R
WASHINGTON CO* MOCLDY    57  43  58 CALM      30.03R
$$

PAZ004>006-010>012-017>019-024>028-033>037-041-042-045-046-049>053-220100-
CENTRAL PENNSYLVANIA

CITY           SKY/WX    TMP DP  RH WIND       PRES   REMARKS
BRADFORD       CLOUDY    47  27  45 CALM      30.03R
DUBOIS         PTCLDY    49  28  44 SE10      30.02S
CLEARFIELD       N/A    N/A N/A N/A MISG      30.06S
JOHNSTOWN      CLOUDY    47  32  56 S8        30.05R
ALTOONA        CLOUDY    49  34  56 S7        30.09R
STATE COLLEGE  PTCLDY    46  30  53 SW3       30.10R
WILLIAMSPORT   NOT AVBL
SELINSGROVE    NOT AVBL
FT INDIANTOWN  MOCLDY    44  26  49 CALM      30.15S
CAPITAL CITY   NOT AVBL
HARRISBURG     CLOUDY    46  33  60 SE5       30.14S
YORK           NOT AVBL
$$

PAZ038>040-043-044-047-048-054-055-060>062-067>071-220100-
EASTERN PENNSYLVANIA

CITY           SKY/WX    TMP DP  RH WIND       PRES   REMARKS
SCRANTON       NOT AVBL
MOUNT POCONO   NOT AVBL
ALLENTOWN      NOT AVBL
QUAKERTOWN*    CLOUDY    45  27  49 SW3       30.18R
READING        NOT AVBL
LANCASTER      NOT AVBL
COATESVILLE    CLOUDY    43  34  70 SE6       30.19R
POTTSTOWN      NOT AVBL
BLUE BELL      PTCLDY    43  32  65 S3        30.18S
DOYLESTOWN     NOT AVBL
WILLOW GROVE   NOT AVBL
NORTH PHILA    NOT AVBL
PHILADELPHIA   MOCLDY    46  33  60 S6        30.20S
$$




USA.gov is the U.S. government's official web portal to all federal, state and local government web resources and services.